Wetter

ACHTUNG: Die hier angeboten Wetter-Informationen sind nicht geeicht und dürfen für Flugvorbereitungen nicht verwendet werden
ACG Flugwetter

METAR/TAF LOXZ

LOXZ 182350Z VRB01KT 20KM SCT025SC 11/10 Q1026

TAF LOXZ 181415Z 1812/1824 CNL

METAR/TAF LOXA

LOXA 100820Z VRB02KT 50KM FEW120AC SCT300CI 17/13 Q1021 NOSIG RMK SCT

TAF TAF LOXA 090515Z 0906/0918 VRB03KT 0500 FG SCT060 BECMG 0906/0908 9999 NSW FEW060 BECMG 0909/0911 04007KT TEMPO 0910/0915 SCT060 BKN100

METAR/TAF LOWG 

LOWG 190120Z AUTO 00000KT 9999 NCD 10/09 Q1025

TAF LOWG 181715Z 1818/1918 VRB03KT 9999 FEW040 SCT045 TX20/1914Z TN10/1904Z TEMPO 1900/1906 0600 BCFG

(Information der letzten Stunde)

(Information der letzten Stunde)

Dichtehöhe (in LOGT)
Temperatur / Windchill der letzten 10 Tage

Ext. Links zu Wetterdiensten

ALDIS

Öster.- Unwetterzentrale